Pearl River, LA

7:53 AM CST on December 09, 2016 (GMT -0600)
Slidell

Weather History for KASD - August, 2012

Change the Weather History Date:

Monday, August 6, 2012

  Actual Average (KNEW) Record (KNEW)
Temperature  
Mean Temperature 82 °F -  
Max Temperature 91 °F 90 °F 98 °F (1999)
Min Temperature 73 °F 77 °F 70 °F (1986)
Cooling Degree Days 17    
Growing Degree Days 32 (Base 50)    
Moisture  
Dew Point 74 °F    
Average Humidity 83    
Maximum Humidity 100    
Minimum Humidity 61    
Precipitation  
Precipitation 0.01 in - - ()
Sea Level Pressure  
Sea Level Pressure 30.02 in    
Wind  
Wind Speed 2 mph (North)    
Max Wind Speed 9 mph    
Max Gust Speed 17 mph    
Visibility 10 miles    
Events Thunderstorm    
Averages and records for this station are not official NWS values.
T = Trace of Precipitation, MM = Missing Value Source: NWS Daily Summary

Daily Weather History Graph

Daily Weather History Graph

Search for Another Location

Airport or City:

Trip Planner

Search our weather history database for the weather conditions in past years. The results will help you decide how hot, cold, wet, or windy it might be!

Date:

Astronomy

Aug. 06, 2012 Rise Set
Actual Time 6:21 AM CDT 7:48 PM CDT
Civil Twilight 5:55 AM CDT 8:14 PM CDT
Nautical Twilight 5:24 AM CDT 8:45 PM CDT
Astronomical Twilight 4:52 AM CDT 9:17 PM CDT
Moon 10:25 PM CDT (8/6) 10:43 AM CDT (8/6)
Length of Visible Light 14h 19m
Length of Day
13h 27m
Waning Gibbous, 78% of the Moon is Illuminated
Aug 6
Waning Gibbous
Aug 9
Last Quarter
Aug 17
New
Aug 24
First Quarter
Aug 31
Full

Hourly Weather History & Observations

Time (CDT) Temp. Heat Index Dew Point Humidity Pressure Visibility Wind Dir Wind Speed Gust Speed Precip Events Conditions
12:53 AM 75.0 °F - 75.0 °F 100% 30.05 in 10.0 mi Calm Calm - N/A   Clear
1:53 AM 75.0 °F - 73.9 °F 96% 30.04 in 10.0 mi Calm Calm - N/A   Clear
2:53 AM 75.0 °F - 73.9 °F 96% 30.03 in 8.0 mi Calm Calm - N/A   Clear
3:53 AM 73.9 °F - 73.9 °F 100% 30.02 in 10.0 mi Calm Calm - N/A   Clear
4:53 AM 73.9 °F - 73.9 °F 100% 30.03 in 9.0 mi Calm Calm - N/A   Clear
5:53 AM 73.9 °F - 73.0 °F 97% 30.04 in 8.0 mi Calm Calm - N/A   Clear
6:53 AM 75.0 °F - 73.9 °F 96% 30.05 in 7.0 mi Calm Calm - N/A   Clear
7:53 AM 79.0 °F - 75.9 °F 90% 30.06 in 10.0 mi NNE 3.5 mph - N/A   Clear
8:53 AM 82.9 °F 90.2 °F 75.0 °F 77% 30.07 in 10.0 mi North 4.6 mph - N/A   Partly Cloudy
9:53 AM 86.0 °F 96.0 °F 75.9 °F 72% 30.07 in 10.0 mi North 6.9 mph - N/A   Clear
10:53 AM 87.1 °F 97.3 °F 75.9 °F 69% 30.06 in 10.0 mi North 5.8 mph - N/A   Clear
11:53 AM 88.0 °F 98.5 °F 75.9 °F 67% 30.06 in 10.0 mi Calm Calm - N/A   Clear
12:53 PM 89.1 °F 100.2 °F 75.9 °F 65% 30.04 in 10.0 mi WNW 3.5 mph - N/A   Clear
1:53 PM 91.0 °F 104.2 °F 77.0 °F 63% 30.01 in 10.0 mi Variable 4.6 mph - N/A   Scattered Clouds
2:53 PM 91.0 °F 102.9 °F 75.9 °F 61% 29.99 in 10.0 mi NW 3.5 mph - N/A   Partly Cloudy
3:53 PM 90.0 °F 102.5 °F 77.0 °F 65% 29.96 in 10.0 mi WSW 6.9 mph - N/A   Clear
4:53 PM 90.0 °F 102.5 °F 77.0 °F 65% 29.96 in 10.0 mi SSE 3.5 mph - N/A   Overcast
5:31 PM 80.6 °F 84.6 °F 71.6 °F 74% 29.98 in 10.0 mi ESE 9.2 mph 17.3 mph N/A Thunderstorm Overcast
5:53 PM 78.1 °F - 73.0 °F 84% 30.00 in 4.0 mi SSE 8.1 mph - 0.01 in Thunderstorm Unknown
6:39 PM 77.0 °F - 71.6 °F 83% 30.00 in 10.0 mi ENE 3.5 mph - N/A   Partly Cloudy
6:53 PM 77.0 °F - 72.0 °F 84% 30.00 in 10.0 mi Calm Calm - N/A   Clear
7:53 PM 77.0 °F - 73.0 °F 88% 29.95 in 10.0 mi Calm Calm - N/A   Clear
8:53 PM 75.9 °F - 73.0 °F 91% 29.97 in 10.0 mi NNW 5.8 mph - N/A   Partly Cloudy
9:53 PM 75.0 °F - 73.0 °F 94% 30.00 in 10.0 mi North 4.6 mph - 0.00 in   Clear
10:53 PM 75.0 °F - 73.9 °F 96% 29.98 in 10.0 mi SSE 3.5 mph - N/A   Clear
11:53 PM 75.0 °F - 73.9 °F 96% 29.97 in 10.0 mi North 3.5 mph - N/A   Partly Cloudy